• In Hungary
  • List of Countries
  • For 7 days
  • Water Temperature
  • Satellite Maps
  • Weather Map
  • News
  • Weather Widgets
  • user-avatar
    Login

    Hourly Weather Shirokiy Karamysh

    Today, 22 June, Friday

    Time Temperature Precipitation Wind Pressure Humidity
    00:00 +17°C° 0 mm 3 mps 747 mmHg 89%
    01:00 +17°C° 0 mm 3 mps 747 mmHg 90%
    02:00 +16°C° 0 mm 2 mps 747 mmHg 90%
    03:00 +16°C° 0 mm 2 mps 747 mmHg 90%
    04:00 +17°C° 0 mm 2 mps 747 mmHg 87%
    05:00 +18°C° 0 mm 2 mps 747 mmHg 85%
    06:00 +18°C° 0 mm 2 mps 748 mmHg 82%
    07:00 +20°C° 0 mm 2 mps 748 mmHg 75%
    08:00 +23°C° 0 mm 2 mps 748 mmHg 67%
    09:00 +24°C° 0 mm 2 mps 748 mmHg 59%
    10:00 +25°C° 0 mm 2 mps 748 mmHg 57%
    11:00 +26°C° 0 mm 3 mps 748 mmHg 54%
    12:00 +27°C° 0 mm 3 mps 748 mmHg 51%
    13:00 +28°C° 0 mm 3 mps 748 mmHg 50%
    14:00 +28°C° 0 mm 3 mps 748 mmHg 50%
    15:00 +29°C° 0 mm 3 mps 748 mmHg 49%
    16:00 +28°C° 0 mm 3 mps 748 mmHg 52%
    17:00 +28°C° 0 mm 2 mps 748 mmHg 55%
    18:00 +28°C° 0 mm 2 mps 748 mmHg 59%
    19:00 +26°C° 0 mm 1 mps 748 mmHg 64%
    20:00 +24°C° 0 mm 1 mps 748 mmHg 69%
    21:00 +22°C° 0 mm 1 mps 748 mmHg 74%
    22:00 +21°C° 0 mm 1 mps 748 mmHg 75%
    23:00 +21°C° 0 mm 1 mps 748 mmHg 77%

    Tomorrow, 23 June, Saturday

    Time Temperature Precipitation Wind Pressure Humidity
    00:00 +20°C° 0 mm 1 mps 748 mmHg 78%
    01:00 +20°C° 0 mm 1 mps 748 mmHg 78%
    02:00 +19°C° 0 mm 1 mps 748 mmHg 79%
    03:00 +19°C° 0 mm 1 mps 748 mmHg 79%
    04:00 +20°C° 0 mm 1 mps 748 mmHg 76%
    05:00 +21°C° 0 mm 1 mps 748 mmHg 73%
    06:00 +22°C° 0 mm 1 mps 748 mmHg 71%
    07:00 +23°C° 0 mm 1 mps 749 mmHg 66%
    08:00 +25°C° 0 mm 1 mps 749 mmHg 62%
    09:00 +27°C° 0 mm 1 mps 749 mmHg 57%
    10:00 +27°C° 0 mm 1 mps 749 mmHg 54%
    11:00 +28°C° 0 mm 2 mps 749 mmHg 52%
    12:00 +29°C° 0 mm 2 mps 749 mmHg 49%
    13:00 +29°C° 0 mm 2 mps 748 mmHg 47%
    14:00 +30°C° 0 mm 2 mps 748 mmHg 46%
    15:00 +30°C° 0 mm 2 mps 748 mmHg 44%
    16:00 +30°C° 0 mm 2 mps 748 mmHg 48%
    17:00 +29°C° 0 mm 2 mps 747 mmHg 51%
    18:00 +29°C° 0 mm 2 mps 747 mmHg 54%
    19:00 +27°C° 0 mm 2 mps 747 mmHg 57%
    20:00 +25°C° 0 mm 2 mps 747 mmHg 60%
    21:00 +23°C° 0 mm 2 mps 747 mmHg 62%
    22:00 +23°C° 0 mm 2 mps 747 mmHg 63%
    23:00 +21°C° 0 mm 2 mps 747 mmHg 64%

    Day after tomorrow, 24 June, Sunday

    Time Temperature Precipitation Wind Pressure Humidity
    00:00 +20°C° 0 mm 2 mps 747 mmHg 65%
    01:00 +20°C° 0 mm 2 mps 747 mmHg 66%
    02:00 +19°C° 0 mm 2 mps 747 mmHg 66%
    03:00 +19°C° 0 mm 3 mps 747 mmHg 67%
    04:00 +20°C° 0 mm 3 mps 747 mmHg 67%
    05:00 +20°C° 0 mm 3 mps 747 mmHg 67%
    06:00 +21°C° 0 mm 3 mps 747 mmHg 68%
    07:00 +24°C° 0 mm 3 mps 748 mmHg 62%
    08:00 +25°C° 0 mm 4 mps 748 mmHg 56%
    09:00 +27°C° 0 mm 4 mps 748 mmHg 51%
    10:00 +28°C° 0 mm 4 mps 748 mmHg 47%
    11:00 +29°C° 0 mm 5 mps 748 mmHg 43%
    12:00 +30°C° 0 mm 5 mps 748 mmHg 39%
    13:00 +30°C° 0 mm 4 mps 748 mmHg 38%
    14:00 +32°C° 0 mm 4 mps 748 mmHg 37%
    15:00 +32°C° 0 mm 4 mps 747 mmHg 36%
    16:00 +31°C° 0 mm 3 mps 747 mmHg 40%
    17:00 +30°C° 0 mm 2 mps 747 mmHg 43%
    18:00 +30°C° 0 mm 2 mps 747 mmHg 47%
    19:00 +28°C° 0 mm 2 mps 747 mmHg 48%
    20:00 +26°C° 0 mm 2 mps 748 mmHg 48%
    21:00 +24°C° 0 mm 2 mps 748 mmHg 49%
    22:00 +24°C° 0 mm 2 mps 748 mmHg 50%
    23:00 +23°C° 0 mm 2 mps 748 mmHg 51%

    25 June, Monday

    Time Temperature Precipitation Wind Pressure Humidity
    00:00 +23°C° 0 mm 2 mps 748 mmHg 52%
    01:00 +21°C° 0 mm 2 mps 748 mmHg 54%
    02:00 +21°C° 0 mm 2 mps 748 mmHg 56%
    03:00 +20°C° 0 mm 2 mps 748 mmHg 58%
    04:00 +21°C° 0 mm 2 mps 748 mmHg 60%
    05:00 +21°C° 0 mm 2 mps 749 mmHg 62%
    06:00 +23°C° 0 mm 2 mps 749 mmHg 64%
    07:00 +25°C° 0 mm 2 mps 749 mmHg 60%
    08:00 +27°C° 0 mm 3 mps 749 mmHg 55%
    09:00 +29°C° 0 mm 3 mps 749 mmHg 51%
    10:00 +30°C° 0 mm 3 mps 749 mmHg 46%
    11:00 +31°C° 0 mm 3 mps 749 mmHg 41%
    12:00 +34°C° 0 mm 4 mps 749 mmHg 36%
    13:00 +34°C° 0 mm 3 mps 749 mmHg 34%
    14:00 +34°C° 0 mm 3 mps 749 mmHg 32%
    15:00 +35°C° 0 mm 3 mps 749 mmHg 31%
    16:00 +34°C° 0 mm 2 mps 749 mmHg 35%
    17:00 +32°C° 0 mm 2 mps 749 mmHg 39%
    18:00 +32°C° 0 mm 2 mps 749 mmHg 43%
    19:00 +30°C° 0 mm 2 mps 749 mmHg 46%
    20:00 +27°C° 0 mm 2 mps 749 mmHg 50%
    21:00 +25°C° 0 mm 2 mps 749 mmHg 54%
    22:00 +24°C° 0 mm 2 mps 749 mmHg 57%
    23:00 +24°C° 0 mm 2 mps 749 mmHg 60%

    26 June, Tuesday

    Time Temperature Precipitation Wind Pressure Humidity
    00:00 +23°C° 0 mm 1 mps 749 mmHg 63%
    01:00 +22°C° 0 mm 1 mps 749 mmHg 65%
    02:00 +22°C° 0 mm 1 mps 749 mmHg 67%
    03:00 +21°C° 0 mm 1 mps 749 mmHg 69%
    04:00 +22°C° 0 mm 1 mps 749 mmHg 68%
    05:00 +23°C° 0 mm 1 mps 749 mmHg 68%
    06:00 +24°C° 0 mm 2 mps 749 mmHg 68%
    07:00 +26°C° 0 mm 2 mps 749 mmHg 63%
    08:00 +28°C° 0 mm 2 mps 749 mmHg 57%
    09:00 +29°C° 0 mm 2 mps 749 mmHg 52%
    10:00 +31°C° 0 mm 3 mps 749 mmHg 48%
    11:00 +33°C° 0 mm 3 mps 749 mmHg 43%
    12:00 +34°C° 0 mm 3 mps 749 mmHg 39%
    13:00 +35°C° 0 mm 3 mps 749 mmHg 37%
    14:00 +35°C° 0 mm 3 mps 748 mmHg 35%
    15:00 +36°C° 0 mm 3 mps 748 mmHg 34%
    16:00 +35°C° 0 mm 3 mps 748 mmHg 39%
    17:00 +34°C° 0 mm 3 mps 748 mmHg 44%
    18:00 +33°C° 0 mm 3 mps 748 mmHg 49%
    19:00 +30°C° 0 mm 3 mps 748 mmHg 53%
    20:00 +28°C° 0 mm 3 mps 748 mmHg 57%
    21:00 +26°C° 0 mm 3 mps 748 mmHg 61%
    22:00 +26°C° 0 mm 3 mps 748 mmHg 63%
    23:00 +25°C° 0 mm 3 mps 748 mmHg 64%

    27 June, Wednesday

    Time Temperature Precipitation Wind Pressure Humidity
    00:00 +25°C° 0 mm 3 mps 748 mmHg 66%
    01:00 +24°C° 0 mm 3 mps 748 mmHg 68%
    02:00 +24°C° 0 mm 2 mps 748 mmHg 70%
    03:00 +23°C° 0 mm 2 mps 748 mmHg 72%
    04:00 +24°C° 0 mm 2 mps 748 mmHg 72%
    05:00 +24°C° 0 mm 2 mps 748 mmHg 73%
    06:00 +25°C° 0 mm 2 mps 748 mmHg 74%
    07:00 +26°C° 0 mm 3 mps 748 mmHg 70%
    08:00 +28°C° 0 mm 3 mps 748 mmHg 66%
    09:00 +29°C° 0 mm 3 mps 748 mmHg 62%
    10:00 +30°C° 0 mm 4 mps 748 mmHg 57%
    11:00 +33°C° 0 mm 4 mps 748 mmHg 52%
    12:00 +34°C° 0 mm 4 mps 748 mmHg 48%
    13:00 +34°C° 0 mm 4 mps 748 mmHg 47%
    14:00 +34°C° 0 mm 4 mps 748 mmHg 46%
    15:00 +34°C° 0 mm 4 mps 747 mmHg 45%
    16:00 +34°C° 0 mm 4 mps 747 mmHg 49%
    17:00 +33°C° 0 mm 3 mps 747 mmHg 52%
    18:00 +33°C° 0 mm 3 mps 747 mmHg 55%
    19:00 +30°C° 0 mm 3 mps 747 mmHg 58%
    20:00 +28°C° 0 mm 3 mps 747 mmHg 61%
    21:00 +26°C° 0 mm 3 mps 747 mmHg 64%
    22:00 +26°C° 0 mm 3 mps 747 mmHg 66%
    23:00 +25°C° 0 mm 3 mps 748 mmHg 68%
    Show more